Погода в Тыхы

Польша     50°07′22″N   18°59′07″E
темп.,
°C
ветер,
м/с
пор.,
м/с
влажн.,
%
обл.,
%
осадки,
мм/ч
давл.,
гПа
погр.,
м
19 сентября, вс
вс1923:00+11ссз3693100 1.7 1014547
02:00+10ссз4690100 2.2 1015542
05:00+10зсз3787100 0.1 1015581
08:00+9сз368599 0.2 1015657
11:00+12ссз246599 0.1 10151153
14:00+12зсз2466100 0.1 1015997
17:00+12сз2369100 0.0 1015337
20:00+11с2472100 0.0 1015223
20 сентября, пн
пн2023:00+11ссв2372100 0.0 1016174
02:00+10с2276100 0.0 1016147
05:00+10ссз2384100 0.1 1016184
08:00+10ссз2583100 0.3 1017429
11:00+11ссз3569100 0.2 1019796
14:00+12ссз456097 0.2 10191271
17:00+10с356884 0.1 1020525
20:00+9св246490 0.1 1022333
21 сентября, вт
вт2123:00+9ююв2264100 0.0 102352
02:00+9з126790 0.0 1024116
05:00+8ю1170100 0.0 102461
08:00+9юз117197 0.0 102581
11:00+10з3464100 0.0 1026376
14:00+13зсз455277 0.0 10251620
17:00+11зсз2561100 0.0 1025247
20:00+11з3566100 0.1 1025139
22 сентября, ср
ср2223:00+10зсз2469100 0.1 1025151
02:00+9зсз3673100 0.1 1025293
05:00+9сз2480100 0.4 1025335
08:00+8сз2588100 1.0 1025447
11:00+9сз3582100 0.9 1025713
14:00+10ссз457358 1.5 1024754
17:00+11сз236553 0.1 1022823
20:00+9зсз2480100 0.5 1022100
23 сентября, чт
чт2323:00+9з2487100 0.5 1022130
02:00+8з3594100 1.4 1021273
05:00+8зюз359297 0.4 1020235
08:00+8зюз4791100 0.6 1020325
11:00+10юз4782100 0.1 1019434
14:00+13зюз5768100 0.1 10171172
17:00+13зюз4774100 0.1 1016643
20:00+11ююз487999 0.1 1015197